Time,TemperatureF,DewpointF,PressureIn,WindDirection,WindDirectionDegrees,WindSpeedMPH,WindSpeedGustMPH,Humidity,HourlyPrecipIn,Conditions,Clouds,dailyrainin,SoftwareType,DateUTC
2013-03-24 00:00:00,72.0,71.4,29.75,ESE,121,1.0,1.0,98,0.00,,,0.01,Wunderground v.1.15,2013-03-24 04:00:00,
2013-03-24 00:10:00,71.8,71.2,29.75,SE,142,0.0,11.0,98,0.00,,,0.01,Wunderground v.1.15,2013-03-24 04:10:00,
2013-03-24 00:20:00,71.6,71.0,29.75,SE,124,1.0,11.0,98,0.00,,,0.01,Wunderground v.1.15,2013-03-24 04:20:00,
2013-03-24 00:30:00,71.6,71.0,29.74,SE,137,1.0,1.0,98,0.00,,,0.01,Wunderground v.1.15,2013-03-24 04:30:00,
2013-03-24 00:35:00,71.6,71.0,29.74,SE,131,1.0,11.0,98,0.00,,,0.01,Wunderground v.1.15,2013-03-24 04:35:00,
2013-03-24 00:40:00,71.6,71.0,29.74,SSE,148,1.0,1.0,98,0.00,,,0.01,Wunderground v.1.15,2013-03-24 04:40:00,
2013-03-24 00:45:00,71.5,70.9,29.74,ESE,114,0.0,11.0,98,0.00,,,0.01,Wunderground v.1.15,2013-03-24 04:45:00,
2013-03-24 00:55:00,71.5,70.9,29.74,SSE,150,1.0,11.0,98,0.00,,,0.01,Wunderground v.1.15,2013-03-24 04:55:00,
2013-03-24 01:05:00,71.5,70.9,29.74,SE,141,1.0,11.0,98,0.00,,,0.00,Wunderground v.1.15,2013-03-24 05:05:00,
2013-03-24 01:10:00,71.5,70.9,29.74,SSE,155,1.0,1.0,98,0.00,,,0.00,Wunderground v.1.15,2013-03-24 05:10:00,
2013-03-24 01:20:00,71.5,70.9,29.72,SE,130,3.0,11.0,98,0.00,,,0.00,Wunderground v.1.15,2013-03-24 05:20:00,
2013-03-24 01:30:00,71.6,71.0,29.72,SE,131,4.0,11.0,98,0.00,,,0.00,Wunderground v.1.15,2013-03-24 05:30:00,
2013-03-24 01:35:00,71.6,71.0,29.72,SE,146,5.0,11.0,98,0.00,,,0.00,Wunderground v.1.15,2013-03-24 05:35:00,
2013-03-24 01:45:00,71.6,71.0,29.71,SSE,165,4.0,9.0,98,0.00,,,0.00,Wunderground v.1.15,2013-03-24 05:45:00,
2013-03-24 01:55:00,71.5,70.9,29.71,South,169,7.0,11.0,98,0.00,,,0.00,Wunderground v.1.15,2013-03-24 05:55:00,
2013-03-24 02:05:00,71.5,70.9,29.71,SE,144,3.0,11.0,98,0.00,,,0.00,Wunderground v.1.15,2013-03-24 06:05:00,
2013-03-24 02:15:00,71.5,70.9,29.70,SSE,162,4.0,11.0,98,0.00,,,0.00,Wunderground v.1.15,2013-03-24 06:15:00,
2013-03-24 02:25:00,71.5,70.9,29.70,SSE,150,4.0,11.0,98,0.00,,,0.00,Wunderground v.1.15,2013-03-24 06:25:00,
2013-03-24 02:35:00,71.5,70.9,29.69,SE,132,4.0,11.0,98,0.00,,,0.00,Wunderground v.1.15,2013-03-24 06:35:00,
2013-03-24 02:45:00,71.5,70.9,29.69,SSE,159,3.0,11.0,98,0.00,,,0.00,Wunderground v.1.15,2013-03-24 06:45:00,
2013-03-24 02:50:00,71.3,70.7,29.69,SSE,159,1.0,11.0,98,0.00,,,0.00,Wunderground v.1.15,2013-03-24 06:50:00,
2013-03-24 03:00:00,71.3,70.7,29.68,SSE,154,3.0,11.0,98,0.00,,,0.00,Wunderground v.1.15,2013-03-24 07:00:00,
2013-03-24 03:10:00,71.3,70.4,29.68,ESE,120,4.0,19.0,97,0.00,,,0.00,Wunderground v.1.15,2013-03-24 07:10:00,
2013-03-24 03:20:00,71.1,70.2,29.68,SE,134,3.0,19.0,97,0.00,,,0.00,Wunderground v.1.15,2013-03-24 07:20:00,
2013-03-24 03:30:00,70.9,70.0,29.66,SE,138,6.0,6.0,97,0.00,,,0.00,Wunderground v.1.15,2013-03-24 07:30:00,
2013-03-24 03:35:00,70.9,70.0,29.66,SSE,153,5.0,19.0,97,0.00,,,0.00,Wunderground v.1.15,2013-03-24 07:35:00,
2013-03-24 03:45:00,70.8,69.9,29.66,SE,146,3.0,19.0,97,0.00,,,0.00,Wunderground v.1.15,2013-03-24 07:45:00,
2013-03-24 03:55:00,70.6,69.4,29.66,SSE,148,6.0,19.0,96,0.00,,,0.00,Wunderground v.1.15,2013-03-24 07:55:00,
2013-03-24 04:05:00,70.6,69.4,29.63,SSE,161,7.0,8.0,96,0.00,,,0.00,Wunderground v.1.15,2013-03-24 08:05:00,
2013-03-24 04:10:00,70.6,69.4,29.63,SE,141,9.0,9.0,96,0.00,,,0.00,Wunderground v.1.15,2013-03-24 08:10:00,
2013-03-24 04:20:00,70.8,69.6,29.63,SE,143,4.0,4.0,96,0.00,,,0.00,Wunderground v.1.15,2013-03-24 08:20:00,
2013-03-24 04:30:00,70.9,69.7,29.64,SE,129,1.0,1.0,96,0.00,,,0.00,Wunderground v.1.15,2013-03-24 08:30:00,
2013-03-24 04:35:00,71.1,69.9,29.64,SE,132,2.0,4.0,96,0.00,,,0.00,Wunderground v.1.15,2013-03-24 08:35:00,
2013-03-24 04:45:00,72.7,71.5,29.63,South,181,10.0,19.0,96,0.00,,,0.00,Wunderground v.1.15,2013-03-24 08:45:00,
2013-03-24 04:55:00,73.3,71.5,29.63,SSW,198,16.0,23.0,94,0.00,,,0.00,Wunderground v.1.15,2013-03-24 08:55:00,
2013-03-24 05:05:00,73.5,71.0,29.63,SSE,153,19.0,19.0,92,0.00,,,0.00,Wunderground v.1.15,2013-03-24 09:05:00,
2013-03-24 05:10:00,73.5,71.0,29.63,SE,133,16.0,19.0,92,0.00,,,0.00,Wunderground v.1.15,2013-03-24 09:10:00,
2013-03-24 05:20:00,73.5,70.7,29.63,South,175,18.0,22.0,91,0.00,,,0.00,Wunderground v.1.15,2013-03-24 09:20:00,
2013-03-24 05:30:00,73.5,70.7,29.63,South,181,18.0,18.0,91,0.00,,,0.00,Wunderground v.1.15,2013-03-24 09:30:00,
2013-03-24 05:40:00,73.5,71.0,29.63,ESE,117,17.0,17.0,92,0.00,,,0.00,Wunderground v.1.15,2013-03-24 09:40:00,
2013-03-24 05:45:00,73.5,71.0,29.62,SSE,150,17.0,19.0,92,0.00,,,0.00,Wunderground v.1.15,2013-03-24 09:45:00,
2013-03-24 05:55:00,73.5,71.0,29.62,South,184,18.0,18.0,92,0.00,,,0.00,Wunderground v.1.15,2013-03-24 09:55:00,
2013-03-24 06:05:00,73.5,71.0,29.62,SSW,195,21.0,21.0,92,0.00,,,0.00,Wunderground v.1.15,2013-03-24 10:05:00,
2013-03-24 06:15:00,73.2,70.7,29.62,South,181,19.0,27.0,92,0.00,,,0.00,Wunderground v.1.15,2013-03-24 10:15:00,
2013-03-24 06:25:00,73.0,70.5,29.62,SSW,210,17.0,38.0,92,0.00,,,0.00,Wunderground v.1.15,2013-03-24 10:25:00,
2013-03-24 06:30:00,73.0,70.9,29.61,South,187,17.0,17.0,93,0.00,,,0.00,Wunderground v.1.15,2013-03-24 10:30:00,
2013-03-24 06:40:00,73.0,71.2,29.61,SE,131,18.0,38.0,94,0.00,,,0.00,Wunderground v.1.15,2013-03-24 10:40:00,
2013-03-24 06:50:00,72.8,71.0,29.62,SSW,200,17.0,38.0,94,0.00,,,0.00,Wunderground v.1.15,2013-03-24 10:50:00,
2013-03-24 07:00:00,72.8,71.0,29.62,South,191,19.0,38.0,94,0.00,,,0.00,Wunderground v.1.15,2013-03-24 11:00:00,
2013-03-24 07:05:00,72.7,70.9,29.62,SSE,160,20.0,38.0,94,0.00,,,0.00,Wunderground v.1.15,2013-03-24 11:05:00,
2013-03-24 07:15:00,72.7,71.2,29.62,South,183,18.0,38.0,95,0.00,,,0.00,Wunderground v.1.15,2013-03-24 11:15:00,
2013-03-24 07:25:00,72.7,71.5,29.62,SW,219,18.0,38.0,96,0.00,,,0.00,Wunderground v.1.15,2013-03-24 11:25:00,
2013-03-24 07:35:00,72.7,71.5,29.62,SSE,161,18.0,38.0,96,0.00,,,0.00,Wunderground v.1.15,2013-03-24 11:35:00,
2013-03-24 07:45:00,72.7,71.5,29.62,SSW,197,16.0,20.0,96,0.00,,,0.00,Wunderground v.1.15,2013-03-24 11:45:00,
2013-03-24 07:50:00,72.5,71.6,29.62,South,191,20.0,20.0,97,0.00,,,0.00,Wunderground v.1.15,2013-03-24 11:50:00,
2013-03-24 08:00:00,72.5,71.6,29.63,South,177,16.0,38.0,97,0.00,,,0.00,Wunderground v.1.15,2013-03-24 12:00:00,
2013-03-24 08:10:00,72.3,71.4,29.63,South,184,14.0,38.0,97,0.00,,,0.00,Wunderground v.1.15,2013-03-24 12:10:00,
2013-03-24 08:15:00,72.1,71.2,29.64,South,188,17.0,38.0,97,0.00,,,0.00,Wunderground v.1.15,2013-03-24 12:15:00,
2013-03-24 08:25:00,72.0,71.1,29.64,South,179,15.0,38.0,97,0.00,,,0.00,Wunderground v.1.15,2013-03-24 12:25:00,
2013-03-24 08:35:00,71.8,70.9,29.65,South,176,17.0,38.0,97,0.00,,,0.00,Wunderground v.1.15,2013-03-24 12:35:00,
2013-03-24 08:45:00,71.8,71.2,29.65,South,170,18.0,38.0,98,0.00,,,0.00,Wunderground v.1.15,2013-03-24 12:45:00,
2013-03-24 08:50:00,71.8,71.2,29.65,South,186,17.0,38.0,98,0.00,,,0.00,Wunderground v.1.15,2013-03-24 12:50:00,
2013-03-24 09:00:00,71.8,71.2,29.65,SSW,194,19.0,38.0,98,0.00,,,0.00,Wunderground v.1.15,2013-03-24 13:00:00,
2013-03-24 09:10:00,71.6,71.0,29.65,SSW,198,19.0,19.0,98,0.00,,,0.00,Wunderground v.1.15,2013-03-24 13:10:00,
2013-03-24 09:20:00,71.6,71.0,29.66,SSW,202,13.0,13.0,98,0.00,,,0.00,Wunderground v.1.15,2013-03-24 13:20:00,
2013-03-24 09:30:00,71.5,70.9,29.67,SSW,211,17.0,35.0,98,0.00,,,0.00,Wunderground v.1.15,2013-03-24 13:30:00,
2013-03-24 09:35:00,71.6,71.0,29.67,SSW,210,17.0,35.0,98,0.00,,,0.00,Wunderground v.1.15,2013-03-24 13:35:00,
2013-03-24 09:45:00,71.6,71.0,29.68,South,185,15.0,35.0,98,0.00,,,0.00,Wunderground v.1.15,2013-03-24 13:45:00,
2013-03-24 09:55:00,71.6,71.0,29.68,South,188,13.0,35.0,98,0.00,,,0.00,Wunderground v.1.15,2013-03-24 13:55:00,
2013-03-24 10:00:00,71.8,71.2,29.68,SW,218,14.0,35.0,98,0.00,,,0.00,Wunderground v.1.15,2013-03-24 14:00:00,
2013-03-24 10:10:00,72.0,71.4,29.68,SSW,206,17.0,17.0,98,0.00,,,0.00,Wunderground v.1.15,2013-03-24 14:10:00,
2013-03-24 10:20:00,72.5,71.9,29.69,SSW,201,16.0,16.0,98,0.00,,,0.00,Wunderground v.1.15,2013-03-24 14:20:00,
2013-03-24 10:30:00,72.7,72.1,29.71,WSW,238,15.0,35.0,98,0.00,,,0.00,Wunderground v.1.15,2013-03-24 14:30:00,
2013-03-24 10:35:00,72.7,71.8,29.71,South,184,14.0,35.0,97,0.00,,,0.00,Wunderground v.1.15,2013-03-24 14:35:00,
2013-03-24 10:45:00,72.7,71.8,29.71,SE,136,16.0,16.0,97,0.00,,,0.00,Wunderground v.1.15,2013-03-24 14:45:00,
2013-03-24 10:55:00,72.7,71.5,29.71,South,174,19.0,35.0,96,0.00,,,0.00,Wunderground v.1.15,2013-03-24 14:55:00,
2013-03-24 11:05:00,73.5,72.0,29.71,SSE,158,15.0,35.0,95,0.00,,,0.00,Wunderground v.1.15,2013-03-24 15:05:00,
2013-03-24 11:15:00,73.9,71.7,29.71,SSW,203,15.0,35.0,93,0.00,,,0.00,Wunderground v.1.15,2013-03-24 15:15:00,
2013-03-24 11:20:00,74.2,71.7,29.71,SW,228,17.0,17.0,92,0.00,,,0.00,Wunderground v.1.15,2013-03-24 15:20:00,
2013-03-24 11:30:00,74.7,71.6,29.71,South,184,18.0,35.0,90,0.00,,,0.00,Wunderground v.1.15,2013-03-24 15:30:00,
2013-03-24 11:40:00,74.6,71.5,29.71,SSE,153,19.0,35.0,90,0.00,,,0.00,Wunderground v.1.15,2013-03-24 15:40:00,
2013-03-24 11:50:00,74.7,71.6,29.70,SW,230,19.0,19.0,90,0.00,,,0.00,Wunderground v.1.15,2013-03-24 15:50:00,
2013-03-24 11:55:00,75.1,72.0,29.70,WSW,245,18.0,35.0,90,0.00,,,0.00,Wunderground v.1.15,2013-03-24 15:55:00,
2013-03-24 12:05:00,75.3,71.8,29.70,South,188,16.0,35.0,89,0.00,,,0.00,Wunderground v.1.15,2013-03-24 16:05:00,
2013-03-24 12:15:00,75.6,71.8,29.69,SSE,165,16.0,36.0,88,0.00,,,0.00,Wunderground v.1.15,2013-03-24 16:15:00,
2013-03-24 12:25:00,76.0,72.2,29.69,SSE,166,23.0,36.0,88,0.00,,,0.00,Wunderground v.1.15,2013-03-24 16:25:00,
2013-03-24 12:35:00,76.1,71.6,29.67,South,186,22.0,25.0,86,0.00,,,0.00,Wunderground v.1.15,2013-03-24 16:35:00,
2013-03-24 12:40:00,76.1,71.9,29.67,SSE,150,23.0,23.0,87,0.00,,,0.00,Wunderground v.1.15,2013-03-24 16:40:00,
2013-03-24 12:50:00,76.7,71.8,29.66,SSW,198,21.0,21.0,85,0.00,,,0.00,Wunderground v.1.15,2013-03-24 16:50:00,
2013-03-24 13:00:00,76.8,71.9,29.67,SW,232,17.0,36.0,85,0.00,,,0.00,Wunderground v.1.15,2013-03-24 17:00:00,
2013-03-24 13:10:00,76.8,71.9,29.67,SW,232,17.0,36.0,85,0.00,,,0.00,Wunderground v.1.15,2013-03-24 17:10:00,
2013-03-24 13:15:00,77.0,72.1,29.67,WSW,240,17.0,36.0,85,0.00,,,0.00,Wunderground v.1.15,2013-03-24 17:15:00,
2013-03-24 13:25:00,77.2,72.0,29.67,WSW,246,18.0,36.0,84,0.00,,,0.00,Wunderground v.1.15,2013-03-24 17:25:00,
2013-03-24 13:35:00,77.4,72.2,29.66,SW,214,19.0,36.0,84,0.00,,,0.00,Wunderground v.1.15,2013-03-24 17:35:00,
2013-03-24 13:45:00,77.7,72.5,29.65,SW,222,19.0,36.0,84,0.00,,,0.00,Wunderground v.1.15,2013-03-24 17:45:00,
2013-03-24 13:55:00,77.9,72.3,29.65,SSW,205,19.0,30.0,83,0.00,,,0.00,Wunderground v.1.15,2013-03-24 17:55:00,
2013-03-24 14:00:00,77.4,72.2,29.64,WSW,248,21.0,36.0,84,0.00,,,0.00,Wunderground v.1.15,2013-03-24 18:00:00,
2013-03-24 14:10:00,77.7,72.1,29.64,South,169,19.0,36.0,83,0.00,,,0.00,Wunderground v.1.15,2013-03-24 18:10:00,
2013-03-24 14:20:00,77.4,72.2,29.64,SW,214,19.0,19.0,84,0.00,,,0.00,Wunderground v.1.15,2013-03-24 18:20:00,
2013-03-24 14:30:00,77.0,71.8,29.63,SSW,205,18.0,18.0,84,0.00,,,0.00,Wunderground v.1.15,2013-03-24 18:30:00,
2013-03-24 14:40:00,76.7,71.8,29.63,SSW,212,17.0,36.0,85,0.00,,,0.00,Wunderground v.1.15,2013-03-24 18:40:00,
2013-03-24 14:45:00,76.5,72.0,29.62,SSW,198,17.0,36.0,86,0.00,,,0.00,Wunderground v.1.15,2013-03-24 18:45:00,
2013-03-24 14:55:00,76.7,72.2,29.62,SSW,212,18.0,36.0,86,0.00,,,0.00,Wunderground v.1.15,2013-03-24 18:55:00,
2013-03-24 15:05:00,76.3,71.8,29.62,SW,229,19.0,36.0,86,0.00,,,0.00,Wunderground v.1.15,2013-03-24 19:05:00,
2013-03-24 15:15:00,76.0,71.8,29.61,South,176,19.0,35.0,87,0.00,,,0.00,Wunderground v.1.15,2013-03-24 19:15:00,
2013-03-24 15:25:00,75.8,71.7,29.61,SW,214,19.0,35.0,87,0.00,,,0.00,Wunderground v.1.15,2013-03-24 19:25:00,
2013-03-24 15:30:00,75.6,71.8,29.61,SSW,193,17.0,35.0,88,0.00,,,0.00,Wunderground v.1.15,2013-03-24 19:30:00,
2013-03-24 15:40:00,75.4,71.6,29.61,SW,233,18.0,18.0,88,0.00,,,0.00,Wunderground v.1.15,2013-03-24 19:40:00,
2013-03-24 15:50:00,75.1,71.6,29.61,South,181,15.0,15.0,89,0.00,,,0.00,Wunderground v.1.15,2013-03-24 19:50:00,
2013-03-24 16:00:00,74.9,71.8,29.61,SSW,197,13.0,13.0,90,0.00,,,0.00,Wunderground v.1.15,2013-03-24 20:00:00,
2013-03-24 16:05:00,74.7,71.9,29.61,SW,231,14.0,29.0,91,0.00,,,0.00,Wunderground v.1.15,2013-03-24 20:05:00,
2013-03-24 16:15:00,74.4,71.9,29.60,SSE,162,17.0,35.0,92,0.00,,,0.00,Wunderground v.1.15,2013-03-24 20:15:00,
2013-03-24 16:25:00,74.0,71.8,29.60,SSW,208,15.0,35.0,93,0.00,,,0.00,Wunderground v.1.15,2013-03-24 20:25:00,
2013-03-24 16:35:00,74.0,72.2,29.59,SW,218,14.0,20.0,94,0.00,,,0.00,Wunderground v.1.15,2013-03-24 20:35:00,
2013-03-24 16:45:00,74.2,72.7,29.59,SSW,209,14.0,35.0,95,0.00,,,0.00,Wunderground v.1.15,2013-03-24 20:45:00,
2013-03-24 16:50:00,74.0,72.2,29.59,SSW,206,16.0,35.0,94,0.00,,,0.00,Wunderground v.1.15,2013-03-24 20:50:00,
2013-03-24 17:00:00,73.3,71.5,29.60,SW,236,16.0,35.0,94,0.00,,,0.00,Wunderground v.1.15,2013-03-24 21:00:00,
2013-03-24 17:10:00,72.8,70.0,29.60,WSW,243,17.0,17.0,91,0.00,,,0.00,Wunderground v.1.15,2013-03-24 21:10:00,
2013-03-24 17:20:00,73.5,69.4,29.60,South,188,15.0,35.0,87,0.00,,,0.00,Wunderground v.1.15,2013-03-24 21:20:00,
2013-03-24 17:30:00,74.4,69.9,29.59,SW,217,15.0,15.0,86,0.00,,,0.00,Wunderground v.1.15,2013-03-24 21:30:00,
2013-03-24 17:35:00,74.7,70.6,29.59,SW,234,15.0,22.0,87,0.00,,,0.00,Wunderground v.1.15,2013-03-24 21:35:00,
2013-03-24 17:45:00,75.1,71.3,29.59,WSW,255,17.0,19.0,88,0.00,,,0.00,Wunderground v.1.15,2013-03-24 21:45:00,
2013-03-24 17:55:00,75.8,72.0,29.59,SW,236,16.0,35.0,88,0.00,,,0.00,Wunderground v.1.15,2013-03-24 21:55:00,
2013-03-24 18:05:00,76.0,72.2,29.59,SW,236,17.0,17.0,88,0.00,,,0.00,Wunderground v.1.15,2013-03-24 22:05:00,
2013-03-24 18:10:00,76.0,72.2,29.59,WSW,253,19.0,38.0,88,0.00,,,0.00,Wunderground v.1.15,2013-03-24 22:10:00,
2013-03-24 18:20:00,76.0,72.2,29.60,WSW,248,17.0,17.0,88,0.00,,,0.00,Wunderground v.1.15,2013-03-24 22:20:00,
2013-03-24 18:30:00,75.8,72.0,29.60,WSW,243,14.0,38.0,88,0.00,,,0.00,Wunderground v.1.15,2013-03-24 22:30:00,
2013-03-24 18:40:00,75.6,72.1,29.60,WSW,247,19.0,19.0,89,0.00,,,0.00,Wunderground v.1.15,2013-03-24 22:40:00,
2013-03-24 18:50:00,75.3,71.8,29.60,WSW,243,17.0,17.0,89,0.00,,,0.00,Wunderground v.1.15,2013-03-24 22:50:00,
2013-03-24 18:55:00,75.3,71.8,29.60,WSW,252,17.0,38.0,89,0.00,,,0.00,Wunderground v.1.15,2013-03-24 22:55:00,
2013-03-24 19:05:00,75.1,71.6,29.61,WSW,245,17.0,18.0,89,0.00,,,0.00,Wunderground v.1.15,2013-03-24 23:05:00,
2013-03-24 19:15:00,74.9,71.8,29.61,WSW,257,14.0,38.0,90,0.00,,,0.00,Wunderground v.1.15,2013-03-24 23:15:00,
2013-03-24 19:20:00,74.7,71.6,29.61,SW,230,14.0,38.0,90,0.00,,,0.00,Wunderground v.1.15,2013-03-24 23:20:00,
2013-03-24 19:30:00,74.6,71.8,29.61,WSW,255,14.0,14.0,91,0.00,,,0.00,Wunderground v.1.15,2013-03-24 23:30:00,
2013-03-24 19:40:00,74.4,71.6,29.61,SW,236,14.0,38.0,91,0.00,,,0.00,Wunderground v.1.15,2013-03-24 23:40:00,
2013-03-24 19:50:00,74.2,71.7,29.62,SW,223,14.0,38.0,92,0.00,,,0.00,Wunderground v.1.15,2013-03-24 23:50:00,
2013-03-24 19:55:00,74.0,71.5,29.62,SW,228,11.0,38.0,92,0.00,,,0.00,Wunderground v.1.15,2013-03-24 23:55:00,
2013-03-24 20:05:00,73.9,71.4,29.63,SW,228,14.0,14.0,92,0.00,,,0.00,Wunderground v.1.15,2013-03-25 00:05:00,
2013-03-24 20:15:00,73.7,71.2,29.63,West,264,12.0,38.0,92,0.00,,,0.00,Wunderground v.1.15,2013-03-25 00:15:00,
2013-03-24 20:20:00,73.7,71.5,29.63,West,271,13.0,38.0,93,0.00,,,0.00,Wunderground v.1.15,2013-03-25 00:20:00,
2013-03-24 20:30:00,73.5,71.4,29.63,WSW,254,11.0,11.0,93,0.00,,,0.00,Wunderground v.1.15,2013-03-25 00:30:00,
2013-03-24 20:40:00,73.5,71.4,29.63,West,270,9.0,9.0,93,0.00,,,0.00,Wunderground v.1.15,2013-03-25 00:40:00,
2013-03-24 20:50:00,73.5,72.0,29.64,WSW,250,11.0,38.0,95,0.00,,,0.00,Wunderground v.1.15,2013-03-25 00:50:00,
2013-03-24 20:55:00,73.5,71.4,29.64,WSW,258,12.0,38.0,93,0.00,,,0.00,Wunderground v.1.15,2013-03-25 00:55:00,
2013-03-24 21:05:00,73.5,71.7,29.65,WSW,252,10.0,38.0,94,0.00,,,0.00,Wunderground v.1.15,2013-03-25 01:05:00,
2013-03-24 21:15:00,73.5,71.7,29.65,West,271,11.0,14.0,94,0.00,,,0.00,Wunderground v.1.15,2013-03-25 01:15:00,
2013-03-24 21:25:00,73.5,71.7,29.65,West,268,10.0,18.0,94,0.00,,,0.00,Wunderground v.1.15,2013-03-25 01:25:00,
2013-03-24 21:35:00,73.3,71.5,29.66,WSW,248,10.0,23.0,94,0.00,,,0.00,Wunderground v.1.15,2013-03-25 01:35:00,
2013-03-24 21:40:00,73.2,71.4,29.66,West,268,10.0,10.0,94,0.00,,,0.00,Wunderground v.1.15,2013-03-25 01:40:00,
2013-03-24 21:50:00,73.0,71.2,29.66,West,271,15.0,23.0,94,0.00,,,0.00,Wunderground v.1.15,2013-03-25 01:50:00,
2013-03-24 22:00:00,72.7,70.9,29.67,West,271,14.0,14.0,94,0.00,,,0.00,Wunderground v.1.15,2013-03-25 02:00:00,
2013-03-24 22:10:00,72.3,70.5,29.67,WNW,287,13.0,23.0,94,0.00,,,0.00,Wunderground v.1.15,2013-03-25 02:10:00,
2013-03-24 22:15:00,72.1,70.3,29.68,WNW,288,14.0,23.0,94,0.00,,,0.00,Wunderground v.1.15,2013-03-25 02:15:00,
2013-03-24 22:25:00,71.6,70.1,29.68,West,276,12.0,23.0,95,0.00,,,0.00,Wunderground v.1.15,2013-03-25 02:25:00,
2013-03-24 22:35:00,71.1,69.9,29.68,WNW,300,12.0,14.0,96,0.00,,,0.00,Wunderground v.1.15,2013-03-25 02:35:00,
2013-03-24 22:45:00,71.1,69.9,29.68,WNW,289,11.0,23.0,96,0.00,,,0.00,Wunderground v.1.15,2013-03-25 02:45:00,
2013-03-24 22:50:00,70.9,69.7,29.68,NW,307,12.0,23.0,96,0.00,,,0.00,Wunderground v.1.15,2013-03-25 02:50:00,
2013-03-24 23:00:00,70.8,69.6,29.69,NW,309,12.0,23.0,96,0.00,,,0.00,Wunderground v.1.15,2013-03-25 03:00:00,
2013-03-24 23:10:00,70.6,69.4,29.69,WNW,293,12.0,12.0,96,0.00,,,0.00,Wunderground v.1.15,2013-03-25 03:10:00,
2013-03-24 23:15:00,70.4,69.2,29.69,WNW,290,12.0,23.0,96,0.00,,,0.00,Wunderground v.1.15,2013-03-25 03:15:00,
2013-03-24 23:25:00,70.4,69.2,29.69,WNW,290,10.0,23.0,96,0.00,,,0.00,Wunderground v.1.15,2013-03-25 03:25:00,
2013-03-24 23:35:00,70.1,68.9,29.69,WNW,290,9.0,11.0,96,0.00,,,0.00,Wunderground v.1.15,2013-03-25 03:35:00,
2013-03-24 23:45:00,69.8,68.3,29.69,WNW,300,9.0,23.0,95,0.00,,,0.00,Wunderground v.1.15,2013-03-25 03:45:00,
2013-03-24 23:50:00,69.8,68.3,29.69,WNW,285,7.0,7.0,95,0.00,,,0.00,Wunderground v.1.15,2013-03-25 03:50:00,